Regional Weather Roundup
Issued by NWS State College, PA

Home | Current Version | Previous Version | Text Only | Print | Product List | Glossary On
Versions: 1 2 3 4 5 6 7 8 9 10 11 12 13 14 15 16 17 18 19 20 21 22 23 24 25 26 27 28 29 30 31 32 33 34 35 36 37 38 39 40 41 42 43 44 45 46 47 48 49 50
000
ASUS41 KCTP 022110
RWRCTP

REGIONAL WEATHER ROUNDUP
NATIONAL WEATHER SERVICE STATE COLLEGE PA
500 PM EDT SUN AUG 02 2015

Note: "fair" indicates few or no clouds below 12,000 feet with no
significant weather and/or obstructions to visibility.

* = STATION THAT DOES NOT REPORT PRECIPITATION /E.G. RAIN...SNOW...ETC/
    THUNDER OR FOG.

PAZ002>004-007>009-013>016-020>023-029>032-022200-
WESTERN PENNSYLVANIA

CITY           SKY/WX    TMP DP  RH WIND       PRES   REMARKS
ERIE           SUNNY     85  61  44 W13       29.82S
MEADVILLE      LGT RAIN  84  59  42 SW10G18   29.88S
FRANKLIN*      MOSUNNY   82  59  44 SW7       29.91S
NEW CASTLE     MOCLDY    87  65  47 SW10      29.88F
BEAVER COUNTY  NOT AVBL
BUTLER*        PTSUNNY   84  61  45 SW12      29.91F
PITTSBURGH INT MOSUNNY   86  60  41 SW13      29.90F
PITTSBURGH     PTSUNNY   85  57  38 SW12G18   29.91F
INDIANA*       MOSUNNY   82  64  54 W10G18    29.94F
LATROBE        MOSUNNY   84  63  48 SW18      29.93F
WASHINGTON CO* NOT AVBL
$$

PAZ004>006-010>012-017>019-024>028-033>037-041-042-045-046-049>053-022200-
CENTRAL PENNSYLVANIA

CITY           SKY/WX    TMP DP  RH WIND       PRES   REMARKS
BRADFORD       SUNNY     79  53  40 VRB6      29.92S
DUBOIS         SUNNY     82  56  40 SW10      29.91F
CLEARFIELD     MOSUNNY   82  59  45 SW10G20   29.91F
JOHNSTOWN      MOSUNNY   79  58  48 SW13G20   29.97F
ALTOONA        MOSUNNY   83  60  45 SW7       29.93F
STATE COLLEGE  MOSUNNY   81  63  54 SW12      29.91F
WILLIAMSPORT   MOSUNNY   86  57  37 SW7       29.85F
SELINSGROVE    MOSUNNY   84  62  47 S9        29.88F
FT INDIANTOWN  MOSUNNY   84  58  40 SW9       29.90F
CAPITAL CITY   SUNNY     87  57  35 SW16      29.89F
HARRISBURG     MOSUNNY   86  58  38 S9        29.89F
YORK           MOSUNNY   83  61  47 SW6       29.92F
$$

PAZ038>040-043-044-047-048-054-055-060>062-067>071-022200-
EASTERN PENNSYLVANIA

CITY           SKY/WX    TMP DP  RH WIND       PRES   REMARKS
SCRANTON       MOSUNNY   84  56  38 SW10      29.89F
MOUNT POCONO   MOSUNNY   76  54  46 SW12      29.96F
ALLENTOWN      MOSUNNY   84  59  42 SW12      29.90F
QUAKERTOWN*    CLEAR     86  57  37 W7        29.92F
READING        MOSUNNY   86  58  38 SW15      29.89F
LANCASTER      SUNNY     83  57  41 W13       29.91F
COATESVILLE    PTCLDY    82  59  44 SW3       29.94F
POTTSTOWN      MOSUNNY   84  59  42 SW6       29.93F
BLUE BELL      SUNNY     86  55  35 SW9       29.90S
DOYLESTOWN     SUNNY     85  48  27 SW9       29.90F
WILLOW GROVE   NOT AVBL
NORTH PHILA    SUNNY     90  45  21 W10       29.91F
PHILADELPHIA   PTSUNNY   89  50  26 SW10      29.91F
$$



USA.gov is the U.S. government's official web portal to all federal, state and local government web resources and services.